Vorticity
5 5 7 7 6 8 12 14 13 8 5 6 8 8 6 7 8 9 10 9 8 8 7 7 7 8 10 9 9 10 9 7 7 8 8 7 7 8 9 9 9 7 8 10 9 10 8 7 13 13 12 14 12 8 9 8 5 7 10 6 6 7 6 7 8 8 8 8 8 6 6 9 7 5 5 4 6 8 8 8 9 10 11 11 10 10 11 11
6 5 6 8 6 7 11 13 14 10 6 6 8 9 6 7 8 8 9 10 11 10 7 7 8 6 5 5 6 8 8 7 5 7 8 7 7 8 11 12 9 6 8 11 9 7 7 7 12 16 14 9 9 11 11 10 10 8 7 7 7 7 8 10 8 8 9 8 7 5 6 7 6 6 5 5 6 9 10 9 9 10 11 10 10 9 9 9
6 6 5 7 7 6 9 12 13 13 8 6 8 11 9 7 7 5 6 7 6 5 5 7 9 8 6 5 6 6 6 5 4 4 6 6 6 7 9 10 10 9 10 11 7 7 9 9 9 9 10 10 12 14 10 11 13 8 9 11 9 8 9 9 7 7 8 8 6 5 6 6 6 6 6 6 7 9 11 10 9 10 10 10 9 7 6 5
5 6 5 6 8 7 8 11 13 13 10 7 7 12 12 7 6 5 4 4 1 2 6 6 7 9 9 8 7 6 5 3 4 5 4 5 6 7 8 8 10 10 9 8 5 7 9 8 11 6 3 12 15 9 7 10 10 9 12 12 9 8 7 6 8 7 8 8 7 5 5 5 5 8 9 7 7 10 11 9 8 9 8 7 6 5 4 5
4 6 6 5 7 7 7 9 12 13 11 9 7 11 14 8 6 6 5 6 4 7 10 8 6 6 7 8 7 7 5 2 4 5 4 5 5 6 10 8 9 11 8 5 3 9 11 8 14 10 1 11 15 8 10 13 11 10 11 10 9 9 7 7 10 9 8 9 7 4 5 6 7 10 11 10 10 10 9 8 8 8 7 5 5 6 5 5
4 5 6 6 6 7 8 8 11 12 11 10 8 10 13 9 7 7 7 6 5 8 11 9 7 6 5 6 6 8 7 5 5 5 4 6 6 7 9 7 8 11 8 6 5 8 12 7 9 12 8 11 12 9 11 12 12 11 9 9 9 10 8 6 8 8 7 9 8 5 7 9 9 10 11 10 11 10 9 8 7 6 5 6 6 6 5 4
3 4 5 7 6 6 8 8 9 12 12 10 9 9 10 8 6 7 9 9 7 9 9 6 5 6 6 7 8 9 10 8 5 3 2 5 8 7 7 7 8 11 11 12 12 9 10 9 7 10 10 10 11 10 9 8 10 9 9 11 10 10 9 7 8 9 8 7 7 7 8 10 10 10 10 10 11 9 8 7 7 6 5 6 5 5 5 5
1 3 4 6 7 6 7 9 8 10 12 10 9 10 8 6 5 7 11 12 11 10 7 4 4 4 6 7 7 7 10 9 5 4 4 5 7 7 7 10 9 11 13 16 16 8 7 12 12 12 11 8 10 10 8 9 10 9 9 11 10 9 9 9 8 8 9 7 6 8 7 10 12 9 8 11 11 8 7 7 6 6 6 5 5 5 6 5
0 2 3 4 7 7 7 8 9 9 11 11 10 10 8 6 7 8 11 12 11 10 6 4 4 4 5 7 6 3 7 8 5 5 6 4 6 7 9 12 11 10 13 14 12 9 9 10 9 11 13 11 11 10 10 11 11 11 11 10 9 9 9 8 7 7 9 8 8 9 9 10 11 10 10 11 10 8 7 7 7 6 5 5 5 5 5 5
-0 1 3 3 5 7 6 8 9 8 10 11 10 11 10 7 7 9 11 11 9 8 7 6 5 5 5 8 8 5 7 9 6 7 8 7 6 6 7 11 11 9 11 10 9 10 12 12 9 9 12 12 10 9 10 11 11 11 12 13 10 9 10 9 8 10 10 10 9 9 9 11 11 11 11 9 7 8 8 7 6 4 5 5 5 4 4 4
1 1 2 2 3 6 7 7 9 9 9 10 10 11 11 8 7 8 8 8 8 8 7 6 7 8 8 9 9 7 9 10 10 12 9 7 6 5 6 9 8 7 10 10 9 9 8 11 12 10 10 11 10 9 9 8 9 10 11 13 13 10 11 12 11 12 11 10 12 11 10 12 12 11 11 7 6 7 7 5 3 3 6 5 4 4 4 3
1 0 1 2 2 4 7 6 8 9 8 9 9 10 11 10 7 5 5 4 5 7 8 7 7 9 8 7 8 7 7 7 9 10 6 5 6 6 6 7 6 4 6 8 9 8 7 9 10 9 8 9 9 8 9 10 9 10 8 9 12 10 10 11 11 11 11 11 11 10 11 13 12 11 9 5 5 6 5 5 4 5 6 5 5 5 3 4
1 1 0 1 2 3 6 7 7 9 9 8 8 9 11 11 8 6 6 4 2 3 4 4 5 8 7 6 7 6 5 6 8 9 7 6 7 7 8 8 9 10 12 13 12 10 10 10 10 9 8 8 7 6 7 8 7 9 9 8 9 8 8 10 10 9 10 10 9 9 12 14 11 10 9 5 6 6 6 7 5 6 7 5 5 5 3 4
2 1 0 1 2 2 4 6 6 7 9 9 7 8 9 10 10 9 9 9 7 5 3 1 2 4 4 6 6 6 9 10 10 11 10 10 11 9 7 6 7 13 16 11 7 9 9 7 8 7 6 6 6 6 6 5 5 6 7 9 10 9 7 7 8 10 12 10 10 12 12 12 11 10 9 6 6 6 6 7 6 7 7 5 4 4 4 4
3 2 1 0 1 2 2 5 6 7 9 9 7 8 9 9 9 11 11 12 11 11 10 4 2 3 2 4 6 4 8 11 10 9 7 8 10 8 7 6 6 12 18 11 3 5 8 6 6 7 6 3 4 7 7 8 8 7 5 6 9 9 7 6 7 10 11 10 11 13 11 9 9 8 8 7 6 6 5 5 6 6 5 4 4 4 4 6
4 3 2 1 1 2 2 3 6 6 7 9 8 8 9 8 7 8 10 11 12 13 11 6 3 1 -2 3 8 4 2 5 6 6 6 7 5 4 6 8 5 8 13 11 7 7 8 6 6 8 5 2 6 8 7 8 9 9 8 6 8 9 6 6 7 8 9 9 11 12 10 8 7 7 7 8 7 7 6 6 6 5 4 5 4 4 6 8
5 4 3 2 1 2 2 2 4 6 7 8 9 9 9 8 8 9 9 9 12 14 12 9 10 6 1 3 6 4 1 1 3 4 4 6 3 -1 0 4 6 6 6 7 8 10 11 8 5 5 5 11 14 8 3 6 6 6 9 8 7 8 8 8 7 8 10 9 9 10 10 9 6 6 5 6 8 7 6 6 6 4 4 4 5 6 8 8
6 4 3 3 2 2 2 1 3 6 6 7 8 10 9 8 8 10 11 9 10 15 12 6 8 10 6 2 3 9 8 3 4 4 1 2 3 3 4 7 8 5 5 8 9 12 13 10 8 7 8 15 16 8 4 9 8 4 8 10 10 10 10 9 7 6 7 8 8 8 8 7 5 5 5 5 8 7 6 7 6 4 3 5 6 7 8 8
6 5 4 3 3 3 2 1 2 4 6 7 7 9 10 8 6 8 10 9 7 13 19 13 10 12 7 -1 -0 7 8 6 11 12 7 2 1 7 10 8 8 7 7 13 14 12 10 7 10 13 12 10 8 8 8 8 10 8 8 7 10 13 10 8 10 10 8 8 10 8 6 5 4 4 5 7 8 8 8 7 8 6 4 6 6 6 7 5
6 6 5 4 3 3 2 2 1 4 6 6 7 7 9 9 7 6 7 8 7 8 15 15 12 12 9 1 -1 2 4 8 15 15 8 0 -0 6 7 2 6 9 8 13 18 13 9 10 12 14 16 9 4 9 7 4 9 12 9 6 9 13 11 8 10 10 7 5 7 8 7 4 3 4 5 6 7 8 8 7 9 8 5 5 5 5 5 5
6 7 5 4 4 2 3 3 2 3 4 5 7 7 8 10 9 7 6 8 9 8 9 9 7 9 10 7 6 3 2 7 6 3 3 1 4 6 3 2 7 9 5 7 14 12 9 11 12 13 17 14 11 11 8 9 14 15 10 9 10 12 10 8 7 8 8 6 5 5 7 5 2 3 4 6 8 9 8 8 8 8 7 6 4 5 5 5
5 6 6 5 4 3 3 4 3 2 3 5 5 5 8 10 9 8 7 7 8 8 9 9 7 9 10 9 7 -2 -2 10 7 -0 3 4 6 7 4 7 7 6 6 4 7 8 6 8 8 9 12 12 12 12 10 11 13 12 9 8 10 10 7 7 8 9 10 11 7 3 6 7 4 5 5 5 6 7 7 7 8 8 8 7 5 5 6 4
5 5 6 5 5 4 3 3 2 0 3 5 5 6 6 8 10 9 7 7 5 6 8 9 9 10 11 11 13 5 0 13 17 11 9 4 4 5 3 6 6 4 6 7 8 5 1 5 6 5 7 8 12 14 10 7 8 9 7 6 9 9 7 7 9 8 6 10 12 7 4 5 6 7 6 5 4 5 6 6 6 5 5 6 5 4 6 4
6 5 6 6 5 4 3 3 3 3 5 5 5 6 5 7 10 9 9 7 5 7 9 10 9 7 10 12 15 13 5 9 17 12 7 7 9 6 -1 1 5 6 6 6 9 8 3 5 8 8 8 8 10 11 8 6 9 13 12 9 7 8 9 8 9 9 7 7 10 9 8 9 6 2 4 8 3 0 5 6 4 3 3 4 5 6 7 6
6 5 5 5 6 4 4 3 4 5 4 2 4 4 5 6 8 10 10 9 9 11 7 5 7 9 10 10 10 12 7 7 11 5 2 7 12 10 3 -0 2 4 7 5 3 5 4 5 8 7 6 7 9 11 11 10 11 14 18 17 8 2 6 6 7 9 8 10 10 7 9 11 7 8 12 11 6 2 5 11 8 5 7 7 8 12 12 10
7 7 5 4 6 5 5 4 5 5 2 2 3 4 5 4 8 11 9 7 6 6 8 4 4 8 6 6 10 10 7 6 4 2 4 3 1 7 8 3 -0 1 8 12 8 4 5 7 9 7 3 5 10 13 13 10 10 11 16 21 14 6 8 9 10 8 6 10 11 5 6 9 12 21 19 8 11 14 13 20 19 11 10 10 12 16 17 13
9 8 6 5 5 5 5 4 5 5 2 3 4 4 6 3 6 10 9 9 3 2 14 11 4 7 7 6 5 0 3 9 5 -1 5 5 1 6 12 8 -1 -3 5 10 7 5 9 12 10 7 3 2 8 11 6 3 7 9 12 16 15 12 14 15 15 15 13 12 9 3 3 8 14 17 10 6 13 15 12 14 14 10 7 5 8 11 11 10
9 8 7 5 4 5 5 4 5 5 2 4 4 3 5 3 5 8 10 13 8 3 8 9 10 11 8 8 8 4 4 8 7 3 7 11 7 3 9 14 5 1 7 6 7 10 7 6 7 6 4 1 5 8 4 3 3 4 9 12 10 8 11 11 10 12 13 16 17 8 1 7 13 8 5 8 10 9 10 9 7 10 11 8 8 7 8 9
9 9 8 7 5 5 5 5 4 4 3 4 3 3 2 3 5 6 8 11 11 10 5 5 12 10 4 6 11 14 12 7 5 6 9 14 14 8 8 13 7 5 9 6 15 20 2 1 10 7 4 2 4 5 5 7 5 5 12 14 11 6 3 4 7 8 10 16 19 9 3 7 7 8 10 9 6 7 11 10 9 11 14 16 12 9 12 11
7 8 9 7 6 5 5 6 5 4 5 5 4 4 2 3 4 4 8 10 8 9 9 7 8 6 5 6 7 11 14 10 6 4 8 8 5 3 2 6 5 5 4 0 12 17 1 3 11 7 5 5 5 5 3 4 4 7 10 8 9 7 -2 0 6 7 8 13 13 4 2 5 4 10 13 5 3 8 6 5 9 8 11 15 9 6 9 7
7 7 9 8 6 6 5 6 6 5 4 5 4 4 3 3 3 3 10 14 9 8 11 11 10 5 5 8 10 17 16 10 8 6 5 4 2 -0 -3 -0 3 1 -2 -2 7 10 4 6 4 3 6 -0 2 7 3 3 3 6 6 2 6 8 3 7 8 5 7 9 11 12 9 3 1 4 8 8 10 9 2 -0 7 9 7 7 5 6 8 6
7 7 7 9 8 6 5 5 6 6 5 5 4 4 4 3 4 5 9 11 9 8 7 6 10 10 11 10 6 13 16 8 7 5 0 4 7 4 0 -2 -0 2 1 4 7 5 13 17 3 2 8 1 5 9 2 2 3 5 6 5 9 6 2 11 12 5 8 8 7 15 14 5 -0 -4 -3 9 17 14 6 5 11 11 6 5 5 6 6 8
7 7 6 8 9 6 6 5 5 6 6 5 5 4 4 3 4 5 7 9 6 9 11 5 5 9 14 15 8 7 11 9 10 6 2 9 9 6 7 -0 -2 4 1 2 7 8 18 24 9 3 10 13 15 11 2 1 2 6 9 11 14 6 -0 12 15 6 6 9 4 6 11 7 7 6 1 5 16 18 12 9 12 10 10 15 10 4 5 11
7 7 7 7 9 8 6 5 5 6 6 6 5 4 5 5 5 5 8 13 4 3 14 9 1 4 5 12 20 11 -4 1 17 13 6 14 15 11 6 -5 0 10 2 -0 7 9 9 9 10 9 7 14 19 13 6 1 1 8 7 6 9 7 4 7 8 5 6 8 4 4 12 7 2 11 12 8 13 15 8 3 7 9 13 17 14 9 10 12
7 7 7 7 9 9 7 5 5 6 6 6 5 4 7 6 8 9 6 7 -1 -7 0 -2 -4 6 4 8 24 19 -3 -1 13 6 -6 -3 -1 -0 -1 -3 7 12 7 9 9 9 11 5 8 6 -5 6 18 15 14 9 3 10 10 4 2 4 8 6 4 9 11 11 8 8 16 7 -3 6 12 10 11 10 8 6 6 9 12 12 13 13 11 12
7 7 7 8 8 8 9 6 4 6 6 6 5 5 8 7 7 8 2 2 5 2 2 1 0 5 4 9 22 19 9 8 10 3 -3 -3 -4 -0 3 0 3 6 9 15 8 4 11 7 4 -1 -9 3 14 11 18 16 6 10 12 7 3 0 3 6 8 9 8 11 11 10 14 8 1 6 9 12 15 10 10 12 9 11 12 9 10 11 8 9
3 7 7 7 8 8 9 7 5 6 6 7 6 5 8 7 4 7 5 4 6 7 5 1 -1 -3 0 17 21 10 8 10 14 19 13 5 4 6 5 -3 -2 10 12 12 13 12 11 6 2 2 -4 2 13 9 8 9 4 4 6 8 9 4 3 6 6 1 0 6 8 8 13 11 7 7 6 10 14 10 10 11 10 13 12 9 10 8 5 7
-1 3 9 7 7 8 8 8 7 5 6 7 8 8 8 5 5 6 5 4 4 7 7 1 -0 -2 4 17 8 1 17 11 6 23 16 0 2 4 7 6 3 7 -1 -11 0 13 12 5 3 4 -3 -1 16 14 -1 1 5 -1 -1 10 11 4 7 11 3 -4 1 6 4 5 9 10 8 6 6 7 7 9 13 11 9 11 11 12 13 9 4 5
2 -1 7 7 6 9 7 7 7 5 7 8 8 10 8 6 9 6 2 5 6 3 4 9 11 1 5 15 -9 -18 16 10 -11 11 14 -1 6 4 -0 7 5 4 0 -6 7 14 4 -2 1 5 4 3 9 6 -2 6 13 3 2 9 7 2 7 10 5 1 4 5 3 3 7 10 6 4 7 7 3 4 10 12 9 8 9 12 14 11 6 5
8 1 4 5 6 9 7 6 7 5 6 9 8 10 9 8 9 5 2 7 6 1 2 15 20 4 1 16 0 -15 10 9 -12 8 18 -2 -5 -6 -8 5 8 4 8 19 37 31 4 -0 7 4 7 12 4 -3 1 15 19 6 -1 -1 2 10 13 7 6 8 4 3 3 0 4 11 10 9 9 5 3 3 7 10 6 6 11 10 9 13 12 9
10 6 4 3 4 8 7 7 7 5 6 9 11 10 8 8 7 3 4 5 3 1 4 10 17 12 3 7 8 -2 3 6 -3 11 21 -3 -18 -10 -2 6 6 2 6 14 24 19 6 16 23 7 4 12 8 -1 -3 11 23 11 -3 -4 -0 11 17 7 -0 4 7 7 6 1 2 7 8 12 11 2 2 5 6 8 6 7 13 9 6 13 15 11
8 10 9 2 1 5 6 7 7 6 6 9 12 10 6 6 5 4 6 5 2 1 3 5 9 17 14 5 7 2 -4 7 10 7 7 -4 -9 2 5 2 1 3 7 6 3 5 10 22 19 0 -3 2 3 1 -7 2 27 26 7 3 4 7 15 11 3 8 13 10 6 2 1 4 5 5 4 2 5 7 4 7 9 8 10 9 9 12 13 10
6 9 12 6 2 3 4 7 7 5 6 9 12 10 7 7 4 3 3 0 -1 -1 0 2 2 15 23 10 5 4 -3 7 9 -6 -5 3 6 10 3 -2 3 5 5 3 3 6 12 19 16 3 0 3 2 4 5 7 21 26 11 1 6 8 7 10 9 7 7 5 5 6 3 5 6 0 0 5 8 8 5 7 10 6 6 10 10 9 11 10
8 5 10 11 6 1 0 6 7 5 7 9 11 10 9 8 6 5 4 -0 -0 -1 -1 -1 -2 12 25 10 2 4 -3 1 3 -8 -1 10 10 13 8 2 6 8 5 0 2 5 3 11 23 12 -2 2 4 2 8 11 10 14 10 -1 8 15 9 9 6 -3 0 3 4 8 8 8 5 -1 3 8 7 9 7 7 10 6 5 10 7 5 10 11
14 5 5 12 12 3 -3 3 6 5 7 7 8 10 10 9 8 6 4 1 2 2 1 2 -1 10 20 7 2 4 -6 -1 6 0 5 8 4 10 12 6 5 4 2 1 3 6 2 3 19 19 -1 -4 5 -1 -3 2 -0 0 3 -0 3 6 -0 2 -1 -8 -1 5 4 8 10 11 9 2 4 7 6 9 6 5 11 8 4 8 5 6 10 12
21 14 5 6 14 10 -2 -1 5 6 7 7 6 7 9 9 8 8 5 1 4 4 2 3 2 8 16 11 6 3 -3 3 8 3 6 6 -3 -1 2 1 1 -3 -4 2 3 5 10 10 14 20 10 -2 4 5 -2 -0 2 -2 -1 0 -1 -6 -7 2 6 2 2 3 6 10 6 8 10 3 3 6 4 7 7 4 9 7 4 7 7 9 11 9
20 23 14 3 8 13 5 -2 1 4 6 7 6 4 8 11 8 7 6 3 3 4 3 5 5 5 13 15 10 2 -3 4 6 -0 6 7 -2 -1 2 -1 2 6 7 10 13 13 16 17 11 11 13 5 2 8 6 1 2 1 2 2 -2 -4 0 10 14 10 6 2 4 8 6 5 5 0 3 6 2 4 6 4 5 8 8 6 5 7 7 5
14 22 25 12 3 9 11 4 -1 2 6 7 7 5 6 12 10 6 7 5 3 4 4 7 8 10 14 12 6 1 -2 3 1 -5 2 6 -2 -1 8 6 3 9 11 8 14 18 16 17 12 5 12 11 -1 2 9 2 -6 -4 1 4 1 -3 -2 3 5 4 5 5 5 11 13 5 2 2 4 7 7 9 9 4 3 9 9 3 3 5 4 3
11 15 26 24 10 3 9 11 2 -0 4 5 6 7 6 9 10 8 8 6 6 6 5 4 6 11 14 8 2 -2 -5 -1 1 -6 -3 2 -7 -11 -1 5 2 2 5 3 7 17 18 18 15 7 11 11 -2 -1 11 4 -7 -5 5 9 5 3 3 3 2 0 2 5 6 11 11 3 -1 1 3 6 9 12 13 5 -1 5 6 2 3 7 5 4
10 11 18 27 24 8 2 11 9 1 1 4 4 4 6 8 9 10 10 7 7 8 6 4 2 5 8 7 7 2 -8 -6 2 -0 -1 -1 -6 -11 -10 -4 -2 -3 -0 4 6 12 15 15 13 9 10 8 1 3 8 0 -9 -6 5 8 -0 -2 4 4 -2 -6 -4 3 7 6 3 -1 -2 -0 6 10 7 8 13 8 2 8 10 6 6 7 8 7
8 10 11 19 29 22 5 5 11 6 1 4 5 3 3 5 6 7 8 6 6 6 8 8 3 1 3 2 7 8 1 3 7 7 7 1 -6 -7 -8 -4 2 -1 -4 -0 2 4 9 13 14 10 7 8 6 4 3 3 -0 -3 6 14 4 -8 -4 -1 -5 -8 -5 4 10 9 3 2 4 6 10 11 6 9 15 9 6 9 7 5 6 7 11 11
5 8 10 11 21 29 19 5 6 10 5 1 5 6 2 1 3 6 7 7 6 3 5 11 10 6 4 0 2 5 4 8 10 7 8 3 -5 -5 -1 3 7 1 -4 -1 1 4 7 10 14 16 14 14 12 7 4 8 11 9 9 14 8 -5 -3 3 -0 -2 1 2 4 4 1 -0 3 6 7 6 5 10 11 5 4 6 3 4 8 8 10 11
Height
5839 5838 5836 5834 5832 5830 5829 5827 5826 5825 5824 5823 5822 5822 5821 5820 5819 5818 5817 5816 5815 5815 5814 5814 5814 5813 5812 5811 5810 5809 5808 5808 5808 5808 5807 5806 5806 5805 5805 5805 5804 5803 5803 5803 5803 5802 5801 5801 5802 5802 5802 5801 5801 5801 5802 5801 5800 5800 5800 5800 5799 5798 5799 5799 5799 5799 5799 5798 5798 5798 5798 5798 5796 5795 5795 5795 5795 5795 5794 5794 5794 5794 5794 5794 5794 5794 5794 5795
5840 5839 5837 5835 5833 5832 5830 5828 5826 5825 5825 5824 5823 5822 5822 5821 5820 5819 5818 5817 5817 5816 5816 5815 5815 5814 5813 5812 5811 5810 5810 5809 5808 5808 5808 5807 5806 5805 5805 5805 5804 5803 5803 5803 5803 5802 5801 5802 5802 5802 5801 5801 5801 5802 5802 5801 5800 5800 5800 5800 5800 5799 5799 5799 5800 5799 5799 5799 5798 5798 5798 5798 5798 5796 5795 5795 5795 5796 5795 5795 5795 5795 5795 5795 5795 5795 5795 5796
5841 5839 5838 5836 5834 5833 5831 5829 5827 5826 5825 5824 5824 5823 5823 5822 5821 5820 5819 5819 5818 5818 5817 5816 5815 5815 5814 5813 5812 5811 5811 5810 5809 5809 5808 5807 5806 5806 5805 5805 5803 5803 5803 5804 5804 5803 5802 5802 5802 5801 5801 5802 5802 5802 5802 5802 5801 5801 5801 5801 5801 5800 5800 5800 5800 5800 5799 5799 5799 5799 5799 5799 5798 5797 5796 5795 5795 5796 5797 5796 5796 5796 5796 5796 5796 5796 5797 5797
5842 5840 5839 5837 5835 5834 5832 5830 5829 5827 5826 5825 5825 5824 5823 5823 5822 5821 5821 5820 5819 5818 5818 5817 5816 5815 5814 5814 5813 5813 5812 5811 5810 5809 5807 5807 5807 5806 5806 5804 5803 5803 5803 5804 5804 5803 5803 5803 5802 5801 5801 5802 5802 5802 5802 5802 5802 5802 5802 5801 5801 5801 5800 5800 5800 5800 5799 5799 5799 5799 5799 5799 5799 5798 5797 5796 5796 5797 5797 5797 5797 5797 5797 5797 5797 5798 5798 5799
5842 5841 5839 5838 5836 5835 5833 5831 5830 5828 5827 5826 5825 5825 5824 5823 5823 5822 5821 5821 5820 5819 5818 5817 5817 5816 5815 5814 5814 5814 5813 5812 5811 5809 5807 5807 5807 5807 5806 5805 5804 5804 5804 5804 5804 5805 5804 5803 5802 5801 5801 5802 5802 5801 5802 5802 5802 5802 5801 5801 5801 5801 5800 5800 5800 5800 5800 5799 5799 5799 5800 5799 5799 5799 5798 5798 5798 5798 5798 5798 5798 5799 5799 5799 5799 5800 5800 5800
5843 5842 5840 5838 5837 5835 5834 5832 5831 5829 5828 5827 5826 5825 5825 5824 5823 5823 5822 5821 5821 5820 5819 5818 5817 5816 5816 5815 5815 5814 5813 5813 5812 5810 5808 5808 5807 5807 5807 5806 5806 5805 5805 5805 5805 5805 5805 5804 5803 5803 5802 5802 5802 5802 5802 5802 5802 5801 5801 5801 5802 5802 5801 5801 5801 5800 5800 5800 5800 5800 5800 5800 5799 5799 5799 5799 5799 5799 5800 5800 5800 5800 5800 5801 5801 5801 5801 5801
5844 5842 5841 5839 5837 5836 5835 5833 5832 5830 5829 5827 5827 5826 5826 5825 5824 5823 5823 5822 5821 5821 5820 5819 5818 5817 5816 5816 5815 5815 5815 5814 5812 5810 5809 5809 5808 5808 5808 5807 5807 5807 5807 5806 5807 5806 5805 5805 5804 5804 5803 5803 5803 5803 5803 5802 5802 5801 5801 5801 5802 5802 5801 5801 5801 5801 5801 5801 5801 5801 5801 5801 5800 5800 5800 5800 5801 5801 5801 5802 5802 5802 5802 5802 5803 5803 5802 5802
5844 5843 5841 5840 5838 5837 5835 5834 5833 5831 5830 5828 5827 5827 5826 5826 5825 5824 5824 5823 5822 5821 5820 5819 5819 5818 5817 5817 5816 5816 5815 5814 5812 5810 5810 5810 5809 5809 5809 5809 5809 5808 5808 5808 5808 5807 5806 5806 5805 5805 5805 5804 5804 5803 5803 5803 5803 5802 5802 5802 5802 5802 5802 5802 5802 5802 5801 5801 5801 5801 5801 5801 5801 5801 5801 5802 5802 5802 5803 5803 5804 5804 5804 5804 5804 5804 5804 5804
5844 5843 5842 5840 5839 5837 5836 5835 5833 5832 5830 5829 5828 5827 5827 5826 5825 5825 5824 5824 5823 5822 5821 5820 5819 5819 5818 5818 5816 5815 5815 5815 5812 5811 5811 5811 5811 5811 5810 5811 5810 5810 5809 5809 5809 5808 5808 5808 5807 5806 5806 5806 5805 5804 5804 5804 5804 5804 5803 5803 5802 5802 5803 5803 5803 5803 5803 5803 5802 5802 5802 5802 5803 5802 5802 5803 5804 5804 5804 5805 5805 5805 5805 5805 5805 5805 5805 5805
5844 5843 5842 5841 5839 5838 5836 5835 5834 5833 5831 5830 5829 5828 5827 5827 5826 5826 5825 5824 5824 5823 5822 5821 5821 5820 5819 5819 5817 5816 5816 5815 5813 5813 5813 5813 5813 5812 5812 5812 5812 5811 5811 5810 5810 5809 5809 5809 5809 5808 5807 5807 5806 5805 5805 5804 5804 5804 5804 5804 5803 5803 5803 5803 5803 5804 5804 5803 5803 5803 5803 5803 5804 5804 5803 5804 5805 5805 5806 5806 5806 5806 5806 5806 5806 5806 5806 5806
5844 5843 5842 5841 5840 5838 5837 5836 5834 5833 5832 5830 5829 5828 5827 5827 5827 5826 5825 5825 5824 5824 5823 5822 5822 5821 5820 5820 5818 5817 5817 5815 5814 5814 5814 5815 5814 5813 5813 5813 5813 5812 5811 5810 5810 5810 5810 5810 5810 5809 5809 5808 5807 5806 5805 5805 5804 5804 5804 5804 5804 5804 5804 5804 5804 5805 5804 5804 5804 5804 5804 5804 5804 5804 5805 5804 5805 5806 5806 5806 5806 5806 5807 5806 5806 5806 5806 5806
5844 5843 5842 5841 5840 5839 5837 5836 5835 5834 5832 5831 5830 5829 5828 5827 5827 5827 5826 5825 5825 5824 5824 5823 5822 5822 5821 5820 5819 5817 5816 5815 5815 5816 5816 5815 5815 5815 5815 5815 5814 5813 5812 5812 5811 5811 5810 5810 5810 5810 5809 5809 5808 5807 5807 5807 5805 5805 5805 5805 5805 5805 5805 5805 5805 5805 5805 5805 5805 5805 5804 5805 5805 5806 5806 5805 5805 5806 5806 5806 5806 5806 5807 5806 5806 5807 5807 5806
5843 5842 5842 5841 5840 5839 5837 5836 5835 5834 5833 5831 5830 5829 5828 5828 5827 5827 5827 5826 5825 5825 5824 5823 5823 5823 5822 5821 5820 5818 5815 5815 5816 5818 5817 5817 5817 5817 5816 5816 5815 5814 5814 5813 5812 5812 5811 5810 5810 5810 5809 5809 5809 5809 5809 5808 5807 5806 5806 5806 5807 5807 5806 5806 5806 5806 5806 5806 5806 5806 5806 5806 5807 5807 5807 5806 5806 5807 5806 5806 5806 5807 5808 5807 5807 5807 5807 5807
5842 5842 5841 5841 5840 5839 5838 5836 5835 5834 5833 5832 5830 5829 5829 5828 5827 5827 5827 5826 5826 5825 5825 5824 5823 5823 5823 5822 5821 5818 5817 5817 5819 5819 5818 5818 5819 5819 5818 5817 5816 5815 5815 5815 5814 5813 5812 5811 5811 5810 5810 5810 5810 5810 5810 5809 5809 5808 5807 5807 5808 5807 5807 5806 5806 5807 5807 5807 5806 5807 5807 5808 5808 5808 5808 5807 5807 5808 5807 5807 5807 5808 5808 5808 5807 5807 5808 5807
5841 5841 5840 5840 5839 5839 5838 5836 5835 5834 5833 5832 5831 5830 5829 5828 5827 5827 5827 5826 5826 5825 5825 5824 5824 5824 5824 5823 5822 5819 5818 5819 5821 5820 5819 5820 5821 5820 5820 5818 5817 5817 5816 5816 5815 5813 5813 5812 5812 5812 5811 5811 5811 5810 5810 5810 5810 5809 5808 5808 5808 5808 5808 5807 5807 5808 5809 5808 5808 5809 5809 5808 5808 5808 5808 5808 5809 5809 5808 5808 5808 5808 5809 5808 5808 5808 5809 5808
5840 5840 5839 5839 5839 5838 5837 5836 5835 5834 5833 5832 5831 5830 5829 5828 5827 5827 5827 5826 5826 5825 5825 5825 5824 5824 5823 5823 5823 5821 5819 5820 5821 5821 5821 5822 5822 5821 5821 5820 5818 5818 5817 5817 5816 5815 5814 5813 5813 5813 5812 5812 5811 5811 5811 5811 5811 5810 5810 5809 5808 5808 5808 5808 5808 5808 5809 5809 5809 5810 5809 5809 5809 5809 5810 5810 5810 5810 5809 5809 5810 5810 5809 5809 5809 5809 5809 5809
5839 5838 5838 5838 5838 5838 5837 5836 5835 5834 5833 5832 5831 5830 5829 5828 5828 5827 5826 5826 5825 5825 5825 5825 5825 5825 5824 5823 5823 5821 5820 5821 5822 5822 5823 5823 5823 5823 5822 5821 5819 5819 5818 5817 5817 5816 5815 5815 5814 5814 5813 5812 5812 5812 5812 5812 5812 5811 5811 5810 5809 5809 5809 5809 5809 5809 5809 5810 5810 5810 5810 5810 5810 5810 5811 5811 5811 5811 5810 5811 5811 5811 5811 5810 5810 5810 5810 5809
5837 5837 5837 5837 5837 5837 5836 5836 5835 5834 5833 5832 5831 5830 5829 5829 5828 5827 5827 5826 5825 5825 5825 5825 5825 5825 5824 5822 5822 5822 5822 5822 5822 5823 5824 5823 5824 5825 5823 5822 5822 5821 5819 5819 5819 5818 5817 5816 5816 5815 5814 5813 5813 5813 5813 5813 5813 5812 5812 5812 5811 5810 5810 5809 5808 5809 5810 5810 5810 5811 5811 5811 5810 5811 5811 5811 5812 5811 5811 5812 5812 5812 5811 5810 5810 5810 5810 5810
5835 5836 5835 5835 5836 5835 5835 5835 5835 5834 5833 5832 5831 5830 5829 5829 5829 5828 5828 5827 5826 5825 5825 5825 5825 5825 5824 5822 5821 5822 5822 5823 5824 5824 5824 5824 5825 5826 5824 5823 5824 5822 5821 5821 5821 5819 5818 5818 5817 5816 5815 5815 5814 5814 5814 5814 5814 5813 5813 5813 5812 5811 5810 5810 5809 5809 5811 5811 5811 5812 5812 5811 5811 5811 5812 5812 5813 5812 5812 5813 5813 5812 5811 5811 5810 5810 5810 5809
5833 5834 5834 5834 5834 5834 5834 5834 5834 5834 5833 5832 5831 5830 5829 5829 5829 5828 5828 5827 5827 5826 5825 5825 5825 5825 5826 5823 5820 5821 5823 5825 5826 5825 5824 5824 5824 5826 5825 5824 5825 5824 5823 5823 5822 5821 5820 5819 5818 5817 5817 5816 5815 5816 5816 5816 5815 5814 5814 5814 5813 5812 5811 5810 5810 5811 5812 5812 5812 5812 5813 5812 5812 5812 5813 5813 5813 5813 5813 5813 5812 5812 5811 5811 5811 5811 5811 5810
5831 5832 5832 5832 5832 5832 5833 5833 5833 5833 5832 5832 5831 5830 5829 5829 5828 5828 5827 5827 5827 5826 5826 5825 5824 5825 5826 5824 5820 5820 5824 5826 5827 5826 5825 5824 5825 5827 5826 5825 5825 5825 5824 5824 5823 5822 5821 5820 5820 5819 5818 5818 5817 5817 5817 5817 5816 5815 5815 5815 5814 5813 5811 5811 5811 5812 5813 5812 5813 5813 5813 5814 5813 5813 5814 5814 5814 5814 5814 5813 5812 5812 5812 5812 5812 5811 5811 5810
5829 5830 5830 5830 5831 5831 5831 5832 5832 5832 5832 5831 5830 5829 5829 5828 5828 5828 5827 5827 5827 5827 5826 5825 5824 5826 5826 5824 5821 5821 5824 5826 5827 5826 5825 5824 5825 5826 5826 5826 5826 5826 5826 5825 5825 5824 5822 5821 5821 5820 5819 5819 5819 5818 5818 5818 5818 5817 5817 5816 5815 5813 5812 5811 5811 5812 5812 5813 5814 5814 5814 5814 5814 5814 5814 5814 5814 5814 5814 5814 5813 5813 5813 5813 5812 5811 5810 5809
5827 5828 5828 5828 5829 5829 5829 5830 5830 5831 5831 5830 5830 5829 5829 5828 5828 5827 5827 5827 5826 5826 5826 5825 5825 5826 5825 5823 5822 5821 5823 5826 5827 5826 5825 5824 5825 5827 5826 5826 5826 5827 5827 5826 5826 5825 5823 5822 5821 5821 5820 5820 5819 5819 5819 5818 5818 5817 5816 5815 5814 5814 5813 5813 5813 5813 5813 5814 5815 5815 5815 5815 5815 5814 5814 5814 5815 5815 5815 5814 5813 5813 5813 5813 5812 5812 5811 5809
5824 5825 5826 5826 5827 5827 5828 5828 5829 5830 5830 5830 5829 5829 5828 5828 5828 5827 5827 5827 5827 5827 5826 5826 5826 5826 5824 5822 5822 5822 5823 5825 5826 5826 5826 5825 5826 5828 5826 5825 5826 5827 5827 5827 5826 5825 5824 5822 5821 5821 5821 5820 5820 5820 5820 5819 5818 5816 5815 5815 5815 5815 5814 5814 5814 5814 5814 5815 5816 5816 5816 5816 5816 5815 5815 5814 5814 5814 5814 5814 5813 5813 5813 5812 5812 5812 5811 5809
5821 5822 5823 5824 5824 5825 5826 5826 5828 5829 5829 5828 5829 5828 5828 5828 5828 5827 5827 5826 5826 5827 5827 5827 5826 5825 5824 5822 5823 5823 5823 5825 5825 5825 5825 5826 5826 5827 5826 5825 5825 5826 5827 5827 5826 5825 5824 5823 5821 5821 5821 5821 5821 5821 5819 5818 5817 5817 5816 5816 5816 5816 5815 5815 5815 5815 5815 5815 5815 5816 5816 5816 5816 5816 5815 5815 5814 5814 5813 5813 5812 5812 5812 5811 5811 5811 5810 5808
5818 5819 5820 5821 5822 5823 5824 5825 5826 5827 5827 5827 5827 5827 5827 5827 5827 5827 5827 5826 5826 5827 5827 5827 5826 5824 5824 5823 5823 5824 5824 5824 5825 5825 5825 5826 5826 5826 5826 5825 5825 5826 5826 5827 5827 5825 5824 5823 5822 5821 5821 5821 5821 5821 5819 5818 5818 5818 5818 5817 5817 5817 5817 5816 5816 5816 5815 5815 5815 5815 5815 5815 5815 5814 5814 5814 5814 5813 5813 5812 5812 5812 5811 5810 5810 5810 5809 5807
5815 5816 5817 5818 5819 5820 5822 5823 5824 5825 5824 5825 5825 5826 5826 5826 5826 5826 5826 5826 5826 5826 5826 5826 5825 5824 5824 5823 5823 5824 5824 5825 5825 5825 5826 5826 5826 5826 5827 5826 5825 5825 5826 5826 5826 5826 5825 5824 5823 5823 5823 5823 5823 5822 5821 5820 5820 5821 5820 5819 5818 5817 5817 5817 5817 5816 5816 5815 5815 5815 5815 5815 5814 5813 5813 5813 5813 5812 5812 5812 5812 5811 5810 5810 5809 5809 5808 5806
5811 5813 5814 5815 5816 5818 5819 5821 5822 5822 5821 5822 5824 5825 5825 5825 5825 5825 5825 5825 5825 5825 5825 5825 5825 5824 5823 5823 5823 5824 5824 5825 5825 5825 5826 5826 5826 5826 5827 5827 5826 5826 5826 5826 5826 5826 5825 5825 5825 5824 5824 5824 5824 5823 5822 5822 5822 5822 5821 5820 5819 5819 5818 5818 5818 5817 5817 5817 5816 5816 5816 5815 5814 5814 5813 5812 5812 5812 5812 5812 5812 5811 5811 5810 5809 5808 5807 5806
5807 5809 5811 5812 5813 5815 5816 5818 5819 5819 5819 5821 5823 5823 5824 5824 5824 5824 5824 5824 5824 5824 5824 5824 5824 5823 5822 5823 5823 5824 5825 5825 5825 5826 5827 5826 5826 5827 5827 5826 5826 5826 5827 5827 5828 5828 5826 5825 5825 5825 5825 5825 5825 5824 5823 5823 5823 5824 5823 5821 5820 5820 5820 5819 5819 5819 5818 5818 5818 5817 5817 5816 5815 5814 5813 5813 5813 5812 5811 5811 5812 5811 5811 5810 5809 5808 5807 5806
5803 5805 5807 5809 5810 5812 5813 5815 5816 5817 5817 5819 5821 5821 5822 5823 5823 5823 5823 5823 5823 5823 5823 5824 5823 5823 5822 5823 5823 5824 5825 5825 5825 5825 5827 5827 5827 5827 5827 5827 5826 5827 5827 5828 5828 5828 5826 5826 5826 5826 5826 5825 5825 5824 5824 5824 5825 5825 5823 5822 5822 5821 5820 5820 5820 5820 5819 5819 5819 5818 5818 5817 5816 5815 5814 5814 5813 5812 5811 5811 5811 5811 5810 5810 5809 5808 5807 5806
5799 5801 5803 5805 5807 5808 5810 5811 5813 5814 5816 5817 5818 5819 5821 5821 5822 5822 5822 5823 5822 5822 5823 5823 5822 5822 5822 5823 5823 5824 5825 5825 5825 5826 5827 5827 5828 5828 5827 5827 5827 5827 5828 5828 5828 5828 5827 5828 5827 5826 5826 5826 5825 5825 5824 5825 5825 5825 5824 5824 5823 5822 5821 5821 5821 5821 5820 5820 5820 5819 5818 5817 5817 5816 5816 5815 5814 5813 5812 5812 5812 5811 5810 5810 5809 5808 5807 5805
5795 5797 5799 5801 5803 5805 5806 5808 5810 5811 5813 5815 5816 5817 5818 5820 5821 5821 5822 5822 5822 5822 5822 5822 5822 5821 5822 5822 5823 5824 5824 5825 5825 5825 5826 5827 5828 5828 5828 5828 5827 5828 5828 5828 5828 5828 5828 5828 5827 5826 5826 5826 5826 5825 5825 5825 5824 5824 5824 5824 5824 5823 5823 5822 5822 5822 5821 5821 5820 5819 5818 5818 5818 5817 5817 5816 5815 5814 5813 5812 5812 5811 5810 5810 5809 5807 5806 5805
5791 5793 5795 5797 5799 5801 5803 5805 5807 5808 5810 5812 5813 5815 5816 5818 5819 5820 5820 5820 5821 5821 5820 5820 5821 5821 5822 5822 5823 5823 5824 5825 5825 5825 5826 5827 5827 5828 5829 5828 5827 5828 5828 5829 5829 5828 5827 5827 5827 5827 5827 5827 5827 5826 5825 5825 5824 5825 5825 5825 5824 5824 5823 5823 5822 5822 5821 5821 5821 5820 5819 5819 5819 5818 5817 5816 5815 5814 5813 5812 5811 5810 5809 5809 5808 5807 5806 5805
5787 5789 5791 5793 5794 5796 5798 5801 5803 5805 5807 5809 5810 5812 5814 5816 5817 5818 5818 5818 5819 5819 5818 5818 5819 5820 5821 5822 5823 5823 5823 5824 5825 5825 5826 5827 5827 5828 5828 5828 5828 5827 5828 5829 5829 5828 5828 5827 5827 5827 5827 5827 5827 5826 5825 5825 5825 5825 5826 5826 5825 5825 5824 5823 5823 5822 5821 5821 5820 5820 5819 5819 5819 5818 5817 5816 5815 5814 5813 5811 5811 5810 5809 5808 5808 5807 5806 5805
5782 5785 5787 5789 5790 5792 5794 5796 5799 5801 5803 5805 5807 5809 5813 5814 5815 5816 5816 5815 5815 5815 5815 5815 5816 5818 5819 5820 5822 5822 5822 5823 5824 5824 5824 5825 5826 5827 5827 5828 5828 5827 5828 5828 5828 5828 5828 5828 5827 5827 5827 5827 5826 5826 5826 5826 5826 5826 5826 5826 5826 5825 5824 5824 5823 5822 5821 5821 5821 5820 5820 5820 5819 5818 5818 5817 5815 5814 5813 5811 5810 5809 5809 5808 5808 5807 5806 5805
5778 5781 5783 5784 5786 5788 5790 5792 5795 5797 5799 5801 5803 5808 5811 5812 5812 5813 5812 5813 5813 5813 5814 5814 5813 5816 5818 5819 5820 5820 5821 5822 5823 5823 5824 5824 5825 5826 5826 5827 5827 5827 5827 5828 5828 5828 5828 5828 5827 5827 5827 5827 5827 5826 5826 5826 5826 5826 5826 5826 5825 5824 5824 5824 5823 5822 5822 5821 5821 5821 5820 5820 5819 5818 5818 5818 5816 5814 5813 5812 5811 5810 5809 5808 5807 5807 5806 5805
5772 5776 5778 5779 5782 5784 5785 5787 5790 5793 5795 5797 5801 5806 5808 5809 5809 5810 5810 5811 5812 5812 5813 5813 5813 5815 5818 5819 5819 5820 5821 5822 5823 5823 5823 5824 5824 5825 5825 5825 5826 5826 5827 5828 5828 5827 5827 5827 5827 5827 5828 5828 5827 5827 5827 5826 5826 5826 5826 5826 5825 5824 5824 5823 5822 5821 5820 5820 5820 5820 5820 5819 5818 5818 5818 5817 5816 5815 5814 5813 5812 5811 5810 5808 5807 5806 5806 5805
5767 5771 5772 5774 5777 5779 5781 5783 5785 5788 5790 5793 5798 5803 5804 5805 5807 5807 5807 5808 5809 5810 5811 5811 5812 5814 5817 5819 5819 5819 5820 5822 5822 5822 5823 5824 5824 5824 5824 5825 5825 5826 5826 5827 5828 5827 5827 5826 5827 5827 5828 5827 5827 5827 5827 5827 5826 5825 5825 5825 5825 5824 5823 5822 5821 5819 5819 5819 5818 5819 5819 5818 5817 5817 5816 5816 5816 5814 5813 5812 5811 5810 5809 5808 5807 5806 5805 5804
5761 5765 5766 5769 5772 5773 5775 5778 5781 5783 5786 5790 5795 5799 5800 5802 5803 5803 5804 5806 5807 5808 5809 5809 5810 5812 5814 5816 5817 5818 5819 5820 5822 5823 5823 5824 5824 5824 5824 5824 5824 5825 5826 5826 5827 5827 5827 5826 5826 5826 5827 5827 5827 5827 5827 5827 5826 5825 5825 5825 5824 5823 5823 5822 5821 5820 5819 5818 5818 5818 5818 5817 5817 5816 5815 5815 5815 5813 5812 5810 5809 5809 5808 5807 5807 5807 5806 5805
5755 5759 5760 5763 5767 5768 5770 5774 5776 5778 5782 5787 5792 5795 5796 5798 5799 5800 5801 5803 5804 5805 5807 5807 5808 5810 5812 5813 5814 5815 5816 5818 5820 5822 5822 5823 5823 5823 5824 5824 5824 5824 5825 5825 5825 5826 5826 5825 5825 5826 5826 5826 5826 5827 5827 5827 5826 5825 5824 5824 5824 5823 5822 5821 5821 5820 5818 5817 5816 5816 5816 5816 5817 5816 5815 5814 5813 5811 5810 5810 5809 5809 5808 5807 5807 5807 5807 5806
5749 5753 5754 5758 5762 5763 5765 5769 5772 5774 5778 5783 5788 5791 5792 5793 5795 5796 5798 5799 5801 5802 5804 5805 5806 5808 5810 5811 5812 5812 5813 5815 5817 5819 5820 5821 5821 5822 5822 5822 5822 5823 5824 5824 5824 5825 5825 5825 5825 5825 5826 5825 5826 5827 5827 5826 5826 5825 5824 5824 5824 5823 5822 5821 5820 5820 5819 5817 5816 5816 5815 5816 5817 5817 5815 5814 5813 5811 5810 5809 5809 5810 5809 5808 5807 5807 5807 5806
5743 5747 5748 5751 5756 5758 5760 5764 5767 5771 5776 5780 5784 5787 5787 5788 5791 5793 5793 5795 5797 5799 5800 5802 5804 5806 5808 5809 5810 5811 5812 5814 5815 5816 5817 5818 5819 5820 5820 5820 5820 5820 5821 5822 5823 5823 5825 5825 5825 5825 5825 5825 5825 5825 5826 5826 5826 5825 5824 5824 5823 5823 5822 5821 5820 5819 5819 5817 5816 5815 5814 5815 5816 5816 5815 5814 5813 5812 5810 5809 5809 5809 5809 5809 5808 5807 5806 5806
5736 5742 5743 5745 5750 5753 5754 5758 5762 5766 5772 5777 5779 5781 5783 5784 5787 5788 5788 5791 5794 5796 5797 5799 5801 5804 5806 5807 5808 5809 5811 5812 5813 5813 5814 5816 5817 5817 5818 5818 5818 5818 5819 5820 5821 5822 5823 5824 5824 5824 5823 5824 5824 5824 5825 5826 5825 5824 5824 5823 5822 5822 5822 5821 5820 5819 5818 5816 5815 5815 5814 5813 5814 5815 5814 5813 5813 5812 5810 5809 5809 5809 5809 5809 5808 5806 5805 5805
5730 5735 5738 5738 5743 5747 5749 5753 5758 5762 5767 5771 5773 5776 5778 5780 5783 5785 5785 5787 5790 5792 5794 5797 5799 5801 5803 5805 5806 5808 5809 5810 5810 5811 5812 5813 5815 5815 5815 5816 5816 5816 5817 5817 5818 5820 5821 5822 5823 5823 5822 5822 5823 5824 5824 5824 5824 5824 5823 5822 5822 5822 5821 5820 5819 5819 5817 5815 5814 5814 5813 5813 5813 5813 5813 5812 5812 5811 5811 5810 5810 5810 5809 5808 5807 5806 5805 5805
5723 5728 5732 5732 5736 5741 5744 5749 5753 5756 5761 5765 5767 5771 5774 5777 5782 5783 5783 5784 5787 5790 5793 5795 5798 5799 5800 5802 5804 5805 5806 5807 5808 5808 5809 5811 5812 5812 5813 5814 5814 5815 5815 5815 5816 5817 5819 5820 5821 5821 5821 5820 5821 5822 5822 5822 5822 5822 5822 5822 5821 5820 5819 5819 5818 5817 5816 5814 5813 5813 5813 5812 5812 5812 5812 5811 5811 5811 5811 5810 5809 5809 5808 5807 5806 5806 5805 5804
5715 5721 5725 5727 5729 5734 5739 5744 5747 5751 5755 5758 5762 5766 5769 5773 5777 5778 5777 5779 5783 5787 5790 5793 5795 5797 5798 5799 5801 5803 5805 5806 5806 5806 5807 5808 5808 5809 5810 5811 5811 5812 5812 5813 5814 5815 5817 5818 5818 5819 5819 5819 5819 5819 5819 5820 5820 5820 5821 5821 5819 5818 5818 5818 5817 5816 5815 5814 5812 5811 5811 5811 5811 5811 5811 5811 5811 5811 5810 5808 5807 5807 5807 5806 5806 5806 5805 5803
5709 5713 5718 5720 5722 5726 5732 5738 5741 5745 5749 5752 5756 5760 5763 5768 5771 5771 5771 5774 5777 5782 5786 5789 5791 5794 5796 5796 5798 5800 5802 5804 5804 5804 5803 5804 5805 5806 5806 5807 5808 5808 5810 5811 5812 5813 5814 5815 5816 5817 5817 5818 5818 5819 5819 5819 5819 5818 5818 5818 5817 5817 5817 5817 5817 5815 5813 5813 5812 5810 5809 5809 5809 5809 5810 5811 5811 5811 5810 5808 5807 5807 5807 5806 5805 5805 5804 5803
5702 5705 5709 5713 5716 5719 5725 5731 5735 5739 5743 5746 5751 5756 5759 5763 5766 5765 5767 5771 5774 5778 5783 5785 5787 5790 5793 5794 5795 5796 5798 5800 5801 5802 5801 5801 5801 5801 5802 5803 5804 5805 5807 5809 5810 5811 5812 5812 5813 5815 5816 5817 5818 5819 5819 5818 5817 5817 5817 5816 5816 5815 5815 5815 5814 5812 5811 5812 5811 5810 5809 5809 5808 5808 5808 5810 5810 5810 5810 5809 5808 5807 5806 5805 5804 5804 5804 5803
5695 5698 5701 5706 5710 5713 5718 5725 5729 5733 5738 5741 5746 5752 5756 5758 5761 5762 5764 5768 5772 5774 5779 5782 5784 5786 5789 5791 5792 5793 5794 5796 5798 5799 5798 5797 5797 5798 5798 5799 5800 5802 5804 5806 5807 5809 5810 5810 5811 5813 5815 5816 5817 5818 5818 5817 5817 5816 5816 5816 5815 5814 5813 5812 5812 5811 5810 5810 5809 5808 5808 5808 5808 5808 5808 5809 5809 5808 5809 5809 5808 5807 5806 5804 5803 5802 5802 5801
5687 5690 5694 5699 5703 5707 5712 5718 5723 5727 5731 5735 5740 5747 5751 5753 5756 5758 5760 5764 5768 5770 5772 5776 5778 5780 5783 5786 5788 5789 5789 5791 5794 5795 5794 5794 5795 5795 5796 5797 5798 5799 5801 5803 5806 5807 5807 5808 5809 5811 5813 5814 5815 5815 5815 5816 5816 5816 5815 5815 5814 5812 5811 5810 5810 5809 5808 5808 5807 5807 5807 5807 5807 5808 5808 5808 5808 5807 5807 5807 5807 5807 5806 5805 5804 5803 5801 5800
5679 5683 5688 5692 5697 5701 5705 5711 5716 5720 5724 5729 5734 5740 5744 5747 5749 5751 5754 5759 5763 5764 5765 5769 5772 5774 5777 5779 5782 5783 5784 5787 5790 5791 5791 5793 5794 5794 5795 5796 5796 5796 5798 5800 5804 5805 5805 5805 5806 5808 5810 5811 5812 5812 5811 5813 5815 5815 5814 5814 5813 5811 5810 5809 5808 5808 5807 5807 5806 5805 5805 5806 5806 5807 5808 5808 5808 5807 5805 5804 5804 5805 5805 5804 5803 5802 5801 5799
5673 5677 5681 5685 5690 5695 5699 5703 5708 5713 5718 5723 5728 5733 5738 5741 5744 5746 5749 5753 5755 5756 5759 5764 5768 5770 5772 5774 5776 5777 5779 5783 5786 5788 5789 5791 5793 5793 5794 5794 5794 5794 5796 5798 5800 5802 5802 5803 5804 5806 5807 5808 5808 5808 5809 5810 5812 5813 5812 5812 5811 5810 5809 5808 5807 5807 5807 5806 5806 5805 5804 5804 5805 5806 5807 5808 5807 5806 5804 5803 5802 5802 5803 5802 5801 5801 5800 5799